Regional Weather Roundup
Issued by NWS

Home | Current Version | Previous Version | Text Only | Print | Product List | Glossary On
Versions: 1 2 3 4 5 6 7 8 9 10 11 12 13 14 15 16 17 18 19 20 21 22 23 24 25 26 27
000
ASUS45 KBOU 181507
RWRCO

WEATHER ROUNDUP FOR COLORADO
NATIONAL WEATHER SERVICE DENVER/BOULDER CO
900 AM MDT MON SEP 18 2017

NOTE: "FAIR" INDICATES FEW OR NO CLOUDS BELOW 12000 FEET WITH NO
SIGNIFICANT WEATHER AND/OR OBSTRUCTIONS TO VISIBILITY.

COZ001>005-013-030-031-181600-
...NORTHWEST COLORADO...

CITY           SKY/WX    TMP DP  RH WIND       PRES   REMARKS
CRAIG          FAIR      49  41  74 CALM      30.15R
HAYDEN         FAIR      49  37  63 E15       30.17S
MEEKER         FAIR      49  37  63 CALM      30.17S
RABBIT EARS PA FAIR      43  30  61 S6        30.34R
STEAMBOAT SPGS FAIR      43  37  80 CALM      30.19R
WALDEN         FAIR      46  34  61 S5        30.23S
$$

COZ006>008-011-181600-
...WEST CENTRAL VALLEYS...

CITY           SKY/WX    TMP DP  RH WIND       PRES   REMARKS
GRAND JUNCTION FAIR      62  41  46 SE17      30.10R
MONTROSE       FAIR      55  45  68 S3        30.18S
EAGLE          FAIR      48  35  60 CALM      30.24S
RIFLE          FAIR      51  40  65 CALM      30.16R
DELTA          FAIR      59  41  51 MISG      30.15S
NUCLA          FAIR      57  39  51 E3        30.20S
$$

COZ017>023-064>068-181600-
...SOUTHWEST COLORADO...

CITY           SKY/WX    TMP DP  RH WIND       PRES   REMARKS
DURANGO        FAIR      51  42  71 CALM      30.24R
CORTEZ         FAIR      54  46  74 CALM      30.18R
PAGOSA SPRINGS FAIR      50  39  65 CALM      30.29R
TELLURIDE      FAIR      48  36  61 SE3       30.34F
WOLF CREEK PAS FAIR      37  32  81 S6        30.52S
$$

COZ009-010-012-014-032>034-037-058>063-181600-
...CENTRAL COLORADO...

CITY           SKY/WX    TMP DP  RH WIND       PRES   REMARKS
ASPEN          FAIR      50  37  61 S6        30.24F
BUENA VISTA    FAIR      45  38  75 CALM      30.30R
COPPER MTN     FAIR      43  30  61 W7        30.44S
BERTHOUD PASS  FAIR      32  25  74 W18G28    30.44S WCI  20
COTTONWOOD PAS FAIR      46  37  71 SE6       30.37R
GUNNISON       FAIR      42  39  89 CALM      30.32S
KREMMLING      FAIR      45  36  70 CALM      30.26S
LEADVILLE      FAIR      39  35  86 VRB3      30.34S
MONARCH PASS   FAIR      34  32  93 SW16      30.55R WCI  23
SALIDA         FAIR      47  39  73 N6        30.35R
SUNLIGHT       FAIR      39  32  75 SW10G16   30.41R
WILKERSON PASS FAIR      37  30  75 SW8       30.44R
$$

COZ069>075-181600-
...SAN LUIS VALLEY/SANGRE DE CRISTO MOUNTAINS...

CITY           SKY/WX    TMP DP  RH WIND       PRES   REMARKS
ALAMOSA        FAIR      41  41 100 VRB5      30.29S
DEL NORTE      FAIR      48  38  67 SW7       30.31S
LA VETA PASS   FAIR      45  41  87 MISG      30.49S
SAGUACHE       FAIR      46  41  81 CALM      30.31S
$$

COZ035-036-038>040-181600-
...NORTHERN COLORADO FRONT RANGE...

CITY           SKY/WX    TMP DP  RH WIND       PRES   REMARKS
DENVER INTL AP FAIR      62  41  46 SW12      30.10R
DMNS CITY PARK   N/A     61  41  47 SW8       30.10F
AURORA         MOSUNNY   62  40  45 SW10      30.12S
FRONT RANGE AP SUNNY     66  41  39 SW9       30.12R
ERIE MUNI ARPT FAIR      62  44  51 SW5       30.13S
BOULDER MUN AP FAIR      63  45  51 CALM      30.08F
CENTENNIAL     FAIR      62  39  42 SW13      30.12S
BROOMFIELD     MOSUNNY   63  39  42 CALM      30.11S
FORT COLLINS   FAIR      58  46  64 CALM      30.07F
LONGMONT       FAIR      61  46  58 S3        30.09F
$$

COZ041-046-047-076>085-087-088-181600-
...PIKES PEAK/PALMER DIVIDE AND SOUTHERN FOOTHILLS...

CITY           SKY/WX    TMP DP  RH WIND       PRES   REMARKS
COLO. SPRINGS  FAIR      64  40  41 NE3       30.17R
A. F. ACADEMY  FAIR      65  31  27 W13       30.16S
SCHRIEVER AFB  FAIR      65  32  29 W10       30.16R
CHEYENNE MTN   NOT AVBL
ELLICOTT       NOT AVBL
FALCON         FAIR      64  31  29 W16G23    30.20R
FORT CARSON    FAIR      61  43  51 NE6       30.13R
LIMON            N/A    N/A N/A N/A MISG      30.11R
MONUMENT HILL  FAIR      59  36  41 W8        30.21R
CANON CITY     NOT AVBL
WALSENBURG     FAIR      68  39  34 W14       30.16S
TRINIDAD       FAIR      62  53  72 W15       30.15S
$$

COZ042>045-048>051-090-091-181600-
...NORTHEAST COLORADO...

CITY           SKY/WX    TMP DP  RH WIND       PRES   REMARKS
GREELEY ARPT   FAIR      59  50  72 CALM      30.07F
AKRON          FAIR      61  52  72 W14       30.06R
BURLINGTON     FAIR      61  54  77 NW12      30.05R
WRAY           PTSUNNY   61  52  72 W5        30.03S
YUMA           FAIR      61  54  77 W9        30.03S
STERLING       CLOUDY    54  54 100 W7        30.03S FOG
HOLYOKE        FAIR      63  54  72 W6        30.01S
FORT MORGAN    CLOUDY    54  52  94 SW3       30.07R FOG
$$

COZ086-089-092>099-181600-
...SOUTHEAST COLORADO...

CITY           SKY/WX    TMP DP  RH WIND       PRES   REMARKS
PUEBLO         FAIR      66  41  40 W12       30.09S
LA JUNTA       FAIR      65  46  50 MISG      30.06S
LAMAR          FAIR      67  52  58 W13       30.02S
SPRINGFIELD      N/A     66  57  72 SW15      30.07F
$$




USA.gov is the U.S. government's official web portal to all federal, state and local government web resources and services.